Tracking 19562 objects as of 25-Mar-2019
HD Live streaming from Space Station
objects crossing your sky now

COSMOS 2448 (GLONASS)

Track COSMOS 2448 (GLONASS) now!
COSMOS 2448 (GLONASS) is classified as:


NORAD ID: 33468
Int'l Code: 2008-067C
Perigee: 19,120.2 km
Apogee: 19,151.6 km
Inclination: 64.0 °
Period: 675.7 minutes
Semi major axis: 25506 km
RCS: 3.1623 m2 (large)
Launch date: December 25, 2008
Source: Commonwealth of Independent States (former USSR) (CIS)
Launch site: TYURATAM MISSILE AND SPACE COMPLEX (TTMTR)

This is satellite part of Glonass family.
aabbcc
Your satellite tracking list
Your tracking list is empty




NASA's NSSDC Master Catalog

Two Line Element Set (TLE):
1 33468U 08067C   19083.80437478  .00000004  00000-0  00000+0 0  9990
2 33468  63.9603 160.6113 0006151 290.5818  69.4128  2.13116152 79746
Source of the keplerian elements: AFSPC